Temperature
23 23 22 22 21 21 21 21 20 20 20 19 19 19 19 19 19 18 18 18 18 18 18 18 18 18 18 18 17 17 17 17 17 17 18 18 18 18 18 18 18 18 18
23 23 22 22 22 22 21 21 21 20 20 20 19 19 19 19 19 19 18 18 18 18 18 18 18 18 18 18 18 17 17 17 17 17 17 17 18 18 18 18 18 18 18
23 23 23 22 22 22 22 21 21 21 20 20 19 19 19 19 19 19 19 19 18 18 18 18 18 18 18 18 18 17 17 17 17 17 17 17 17 18 18 18 18 18 18
24 24 23 23 23 23 22 22 21 21 21 20 20 19 19 19 20 19 19 19 18 18 18 18 18 18 18 18 18 17 17 17 17 17 17 17 17 17 17 18 18 18 18
24 24 24 24 23 23 23 22 22 21 21 20 20 20 20 20 19 19 19 19 19 19 18 18 18 18 18 18 18 17 17 17 17 17 17 17 17 17 17 17 17 17 17
24 24 24 24 23 23 23 22 22 21 21 21 20 20 20 20 20 19 19 19 19 19 19 18 18 18 18 18 18 18 18 17 17 17 17 17 17 17 17 17 17 17 17
24 24 24 24 23 23 23 23 22 22 21 21 21 20 20 20 20 20 19 19 19 19 19 19 19 18 18 18 18 18 18 17 17 17 17 17 17 17 17 17 16 16 17
24 24 24 24 24 24 23 23 23 22 22 21 21 21 20 20 20 20 19 19 19 19 19 19 18 18 18 18 18 18 18 18 18 18 17 17 17 17 17 17 16 16 16
24 24 24 24 24 24 24 23 23 23 22 22 21 21 21 20 20 20 20 19 19 19 19 18 18 18 18 18 18 18 18 18 18 18 17 17 17 17 17 16 16 16 16
23 24 24 24 24 24 24 23 23 23 23 22 21 21 21 20 20 20 20 20 19 19 19 19 18 18 18 18 18 18 18 18 18 17 17 17 17 17 17 16 16 16 16
23 23 24 24 24 23 23 23 23 23 22 22 21 21 21 20 20 20 20 19 19 19 19 19 18 18 18 18 18 18 18 17 17 17 17 17 17 17 17 17 17 16 16
23 23 23 23 23 23 23 22 22 22 22 22 21 21 21 20 20 20 20 19 19 19 19 18 18 18 18 18 18 18 18 17 17 17 17 17 17 17 17 17 16 16 16
22 22 22 22 22 22 22 22 22 22 22 22 21 21 20 20 20 20 19 19 19 19 19 18 18 18 18 18 18 17 17 17 17 17 17 17 17 17 17 16 16 16 16
21 21 22 22 22 22 22 22 21 21 21 21 21 20 20 20 20 20 19 19 19 19 19 19 18 18 18 17 17 17 17 17 17 17 17 17 17 17 16 16 16 16 16
20 21 21 21 21 21 21 21 21 21 21 21 20 20 20 19 19 19 19 19 19 19 19 18 18 18 18 18 17 17 17 17 17 17 17 17 17 17 16 16 16 16 16
20 20 21 21 21 21 21 20 20 20 20 20 20 20 20 19 19 19 19 19 19 19 19 18 18 18 18 17 17 17 17 17 17 17 17 17 17 16 16 16 16 16 15
19 19 20 20 20 20 20 20 20 20 20 20 20 19 19 19 19 19 19 19 19 19 18 18 18 18 18 17 17 17 17 17 17 16 16 16 16 16 16 16 16 15 15
19 19 20 20 20 20 20 19 19 19 19 19 19 19 19 19 19 18 18 18 18 18 18 18 18 17 17 17 17 17 16 16 16 16 16 16 16 16 16 16 15 15 15
19 19 19 19 19 19 19 19 19 19 19 19 18 18 18 18 18 18 18 18 18 18 18 17 17 17 17 17 17 16 16 16 16 16 16 16 16 16 15 15 15 15 15
19 19 19 19 19 19 19 18 18 18 18 18 18 18 18 17 17 17 17 17 17 17 17 17 17 17 17 17 16 16 16 16 16 16 16 15 15 15 15 15 15 14 14
18 18 18 18 18 18 18 18 18 17 18 18 18 17 17 17 17 17 17 17 17 17 17 16 16 16 16 16 16 16 15 15 15 15 15 15 15 15 15 14 14 14 14
17 18 18 18 18 18 18 17 17 17 17 17 17 17 17 16 16 16 16 16 16 16 16 16 16 16 16 15 15 15 15 15 15 15 15 15 14 14 14 14 14 13 13
17 17 17 17 17 17 17 17 17 16 16 16 16 16 16 16 16 16 16 15 15 15 15 15 15 15 15 15 14 14 14 14 14 14 14 14 13 13 13 13 13 13 13
17 17 17 17 17 17 16 16 16 16 16 15 15 15 15 15 15 15 15 15 14 14 14 14 14 14 14 14 14 14 14 14 14 13 13 13 13 13 13 12 12 12 12
16 16 16 16 16 16 16 16 15 15 15 15 15 15 15 15 14 14 14 14 14 14 14 14 14 14 14 14 14 13 13 13 13 13 13 13 12 12 12 12 12 12 11
15 15 15 15 15 15 15 15 15 15 15 14 14 14 14 14 14 14 14 14 14 14 13 13 13 13 13 13 13 13 13 13 13 12 12 12 12 12 12 11 11 11 11
Wind_Speed
10 9 10 10 10 9 9 10 9 8 6 4 4 3 3 3 3 4 6 7 8 7 6 4 4 4 3 4 3 2 2 1 1 0 2 3 2 2 3 3 4 5 7
8 10 10 11 11 12 11 10 10 9 8 6 4 3 3 3 3 3 4 6 7 7 6 5 4 4 3 3 3 3 1 1 1 1 0 2 3 2 1 1 2 3 3
14 12 12 12 12 12 13 12 11 9 9 7 3 2 1 0 1 2 3 4 6 7 6 6 5 5 4 4 4 4 4 2 2 2 2 1 2 3 2 2 1 2 2
13 12 13 13 13 13 12 11 11 10 9 8 7 6 5 5 5 4 4 3 4 5 6 6 6 5 4 4 5 5 4 4 3 2 2 2 2 1 2 2 2 2 2
14 14 15 15 13 12 11 10 9 8 8 8 9 8 6 5 3 3 3 4 3 4 5 5 5 5 4 5 5 4 4 4 4 3 2 2 1 2 2 3 3 2 2
13 13 12 10 10 10 10 9 9 8 8 8 8 8 8 7 5 4 4 4 3 3 4 4 5 4 4 5 5 5 5 5 4 4 3 3 2 3 3 4 3 2 2
12 12 11 12 12 12 12 11 11 10 9 9 9 8 8 7 7 6 5 4 3 3 4 4 4 4 5 5 4 5 5 5 5 5 4 4 4 3 3 3 2 2 2
10 11 13 13 13 13 13 13 13 12 10 10 9 8 7 6 6 6 5 5 5 5 4 4 4 4 5 4 4 4 4 4 5 5 5 4 4 3 3 3 2 2 1
10 12 12 12 13 13 14 14 13 12 11 11 9 8 7 7 6 6 5 4 4 4 4 4 4 4 4 4 5 4 5 4 4 4 4 4 3 3 3 3 3 3 2
6 8 10 11 12 12 11 11 11 11 10 9 8 7 7 7 6 5 5 5 5 4 4 5 5 4 4 5 5 4 4 5 4 4 4 4 3 3 3 3 3 3 3
4 6 7 8 8 8 9 10 10 9 8 8 8 7 7 7 6 5 6 5 4 5 5 5 5 5 5 5 5 5 4 5 5 4 5 5 4 3 3 3 3 3 3
3 4 5 6 7 8 8 9 9 9 9 8 8 7 6 6 6 6 6 5 5 5 6 5 5 5 5 5 5 6 5 6 6 5 5 5 4 4 3 3 3 3 3
3 4 5 6 7 6 7 7 7 7 7 8 7 6 5 6 6 6 5 5 6 6 5 5 5 5 5 5 5 6 6 6 6 6 6 6 5 4 3 4 3 3 3
4 4 4 4 6 6 6 6 6 5 5 6 6 5 5 5 6 6 5 5 5 5 5 5 5 5 5 5 5 5 5 5 5 5 6 6 6 6 5 4 4 3 3
3 3 4 3 4 5 5 5 5 5 5 5 5 5 5 5 5 5 6 5 5 5 5 4 4 4 4 5 5 5 5 5 5 5 5 6 6 7 6 5 5 5 4
2 3 3 3 4 5 5 5 5 4 4 5 6 5 5 5 5 6 5 5 5 5 4 5 5 5 5 6 7 6 6 6 6 5 5 4 5 6 7 7 7 7 6
1 2 2 3 4 5 5 6 5 4 4 4 3 3 3 4 4 4 3 4 4 4 4 5 5 6 7 8 8 9 6 6 6 6 5 4 4 5 5 5 5 6 7
1 1 2 2 3 4 4 4 5 5 5 5 4 4 4 4 3 3 4 4 3 4 4 4 5 6 6 8 9 9 7 6 6 7 7 6 6 6 6 5 4 4 4
2 2 3 3 2 2 4 4 4 4 5 5 5 5 4 4 4 4 4 4 3 3 3 4 5 6 6 8 9 8 5 5 6 6 6 7 6 7 8 6 5 4 3
1 1 1 2 2 1 3 4 4 3 4 4 4 4 4 4 5 5 5 4 3 4 4 4 5 5 6 7 8 8 5 5 5 4 5 7 7 7 9 7 6 6 4
2 0 1 2 2 2 4 3 3 3 3 3 3 3 3 4 5 5 4 3 3 3 3 4 4 4 5 5 6 8 6 6 6 5 5 5 7 8 9 8 6 7 5
2 2 2 2 1 2 4 3 2 2 1 1 1 2 2 3 2 3 3 3 3 3 4 4 4 3 3 4 6 8 8 7 7 7 6 5 8 8 8 7 6 7 5
2 2 2 1 0 1 3 4 3 2 2 1 1 1 2 2 2 2 3 3 3 3 4 4 5 4 3 4 5 7 8 8 6 5 6 6 8 7 6 6 7 6 5
1 2 2 2 1 1 2 3 4 3 2 2 2 2 2 2 2 2 3 3 4 4 4 5 5 5 4 3 3 3 4 5 4 4 4 5 6 5 4 4 4 4 4
0 1 2 2 3 2 2 3 3 3 3 3 3 3 3 3 3 3 3 4 5 6 6 6 6 5 6 5 6 5 4 4 4 3 2 2 3 3 3 3 3 3 4
1 1 2 2 3 2 3 3 3 3 4 4 4 4 3 3 3 3 4 4 6 7 8 9 8 6 7 6 6 6 7 7 7 5 4 4 4 5 5 5 4 4 4
Wind_Direction
210 194 190 185 178 180 185 190 190 186 171 166 175 186 211 216 218 222 221 214 213 209 201 211 206 197 205 215 206 199 213 237 203 312 318 312 293 274 258 249 244 245 246
201 195 191 186 186 188 190 192 196 188 185 187 179 177 183 203 213 221 218 215 214 211 210 207 209 204 206 213 206 188 183 227 166 161 1 333 334 327 309 264 243 251 249
204 199 194 193 191 194 194 197 195 191 191 184 159 136 117 112 192 217 222 222 218 215 214 210 205 204 202 217 219 198 193 210 210 188 170 176 261 307 322 319 292 280 268
203 197 193 194 197 199 195 194 190 190 189 178 177 183 194 209 216 210 215 225 219 217 214 209 205 206 203 215 227 211 200 193 215 211 214 206 189 226 318 323 324 320 302
201 198 197 197 196 192 188 189 186 189 186 184 188 192 207 215 213 209 219 224 222 220 217 206 202 207 209 214 218 210 205 200 205 202 196 205 202 205 221 282 310 324 313
201 200 198 189 189 185 183 180 180 188 185 187 192 196 204 206 205 213 219 225 224 225 221 206 203 208 211 215 215 212 211 211 209 207 201 190 189 199 203 238 269 290 300
197 194 189 188 188 185 185 182 182 190 188 189 195 198 203 203 209 214 215 217 218 224 223 213 207 210 213 212 206 206 213 210 208 212 216 214 217 196 186 210 246 265 287
194 194 193 193 191 188 187 185 185 190 188 192 199 199 201 204 215 215 208 210 214 222 215 207 211 215 214 214 204 208 217 213 215 218 212 214 221 209 201 200 204 249 274
196 197 193 192 191 190 189 187 185 187 190 194 194 195 200 204 210 211 207 210 210 217 208 209 215 218 215 211 203 213 217 210 214 219 212 213 219 211 215 211 204 209 245
198 194 191 192 191 192 185 179 181 186 189 188 191 201 202 206 205 199 204 208 214 214 206 212 214 216 217 210 205 215 219 211 215 209 204 209 215 208 209 208 205 206 213
192 189 187 181 175 173 174 177 180 178 182 187 192 198 203 203 200 205 211 210 213 212 213 212 213 217 220 213 208 217 214 216 217 206 203 213 204 202 204 196 193 197 198
176 168 158 151 158 165 171 174 177 181 184 188 193 202 205 198 201 212 215 206 212 216 215 213 217 224 224 214 210 217 214 214 217 212 203 211 201 205 207 199 200 203 200
133 128 132 147 157 160 161 164 172 183 181 181 186 197 207 203 208 215 215 209 214 215 213 210 219 227 225 218 217 216 214 215 216 210 207 210 199 208 208 207 210 209 202
133 133 139 152 154 151 156 161 164 166 163 162 171 186 207 218 221 218 216 214 213 213 212 210 217 220 217 219 222 217 217 219 217 213 209 207 205 210 212 211 209 199 191
96 115 134 139 134 136 144 153 158 160 159 159 176 189 196 205 229 233 227 215 213 218 213 209 213 215 216 220 217 216 216 213 215 217 217 214 208 207 205 205 203 195 193
97 102 119 138 151 151 152 155 158 160 160 176 191 193 195 198 211 225 225 218 213 213 209 211 213 216 225 227 216 211 212 209 208 215 219 217 212 208 204 204 199 194 196
136 121 134 155 165 160 160 161 160 154 165 181 186 195 197 202 216 227 227 229 221 215 216 218 217 224 227 219 215 211 206 206 210 211 209 216 216 203 204 201 200 208 210
163 152 162 168 177 160 155 163 158 167 174 176 191 201 195 199 205 209 225 232 225 222 222 225 226 232 235 216 211 206 206 209 212 210 207 207 211 207 197 188 189 206 220
213 208 190 165 167 161 154 159 166 170 178 189 204 208 200 203 206 220 231 232 223 225 224 231 228 230 239 224 211 200 207 215 220 216 210 207 210 205 185 179 186 194 216
256 216 128 107 142 147 135 146 157 163 194 207 213 210 203 209 220 228 229 223 217 227 229 236 234 233 239 229 216 202 207 214 222 223 218 209 205 191 180 185 188 198 207
266 175 122 145 189 158 132 137 152 193 215 206 194 193 204 220 222 224 221 214 216 222 234 250 258 255 253 240 221 206 212 217 218 222 224 218 195 186 184 186 197 203 187
252 191 164 186 197 153 142 150 195 226 199 176 194 218 219 236 241 216 225 225 221 231 242 250 266 265 255 241 232 219 220 218 217 223 222 212 187 186 189 193 196 178 163
224 196 168 166 205 175 166 178 215 208 169 146 216 260 269 269 251 226 232 238 233 237 248 250 257 268 263 255 242 228 223 218 223 226 210 195 186 181 188 191 180 169 171
203 168 151 159 229 234 209 213 215 196 177 202 231 240 250 271 270 251 238 239 241 242 244 246 251 257 256 251 247 235 226 221 222 223 197 181 177 178 180 179 179 182 188
275 142 162 190 229 245 244 236 217 187 193 214 229 238 240 243 260 269 255 241 243 235 233 240 239 240 250 241 223 219 220 216 212 193 180 178 178 186 190 190 193 193 189
235 172 194 211 233 234 249 256 241 204 198 222 231 235 237 241 245 258 288 284 258 250 237 234 235 247 248 239 224 219 219 210 188 174 191 199 199 201 200 199 203 205 206
Height
1504 1508 1511 1514 1517 1520 1522 1525 1527 1529 1531 1533 1535 1536 1538 1539 1540 1542 1543 1544 1544 1545 1546 1547 1547 1548 1549 1549 1550 1550 1550 1550 1550 1550 1550 1550 1549 1549 1549 1549 1549 1550 1550
1502 1505 1508 1511 1514 1517 1520 1523 1525 1528 1530 1532 1534 1535 1537 1538 1539 1540 1541 1542 1543 1544 1544 1545 1546 1547 1547 1548 1548 1549 1549 1549 1549 1549 1548 1548 1548 1547 1547 1547 1547 1548 1548
1497 1500 1504 1507 1511 1513 1516 1519 1523 1526 1528 1530 1532 1534 1535 1536 1537 1538 1539 1540 1541 1542 1542 1543 1544 1545 1546 1546 1547 1547 1547 1548 1548 1548 1548 1547 1546 1546 1546 1545 1546 1546 1546
1492 1495 1499 1503 1506 1510 1514 1517 1520 1523 1525 1528 1530 1531 1532 1533 1535 1536 1537 1538 1539 1540 1541 1541 1542 1543 1544 1544 1545 1546 1546 1546 1546 1546 1546 1547 1546 1546 1545 1545 1544 1544 1544
1487 1490 1494 1497 1502 1506 1510 1514 1517 1520 1523 1525 1527 1529 1530 1531 1532 1534 1535 1536 1537 1538 1539 1539 1540 1541 1541 1542 1543 1543 1544 1544 1544 1544 1544 1544 1544 1544 1544 1543 1543 1542 1541
1482 1486 1490 1495 1499 1503 1507 1511 1514 1517 1520 1522 1524 1526 1527 1528 1529 1530 1532 1533 1534 1535 1536 1537 1538 1538 1539 1540 1540 1541 1541 1542 1542 1542 1542 1542 1542 1542 1542 1541 1540 1540 1539
1478 1482 1486 1490 1494 1498 1502 1506 1510 1513 1516 1518 1520 1522 1524 1525 1526 1527 1528 1529 1530 1532 1533 1534 1535 1536 1536 1537 1538 1538 1538 1539 1539 1539 1539 1539 1540 1540 1539 1539 1538 1537 1537
1473 1477 1481 1485 1489 1493 1497 1501 1504 1508 1512 1514 1516 1519 1520 1522 1523 1524 1525 1526 1527 1529 1530 1532 1532 1533 1534 1535 1535 1535 1535 1536 1536 1536 1536 1537 1537 1537 1537 1537 1537 1535 1535
1469 1472 1476 1480 1484 1488 1492 1496 1500 1504 1507 1511 1513 1515 1517 1518 1519 1520 1522 1523 1525 1526 1527 1529 1530 1530 1531 1531 1532 1532 1532 1532 1533 1533 1534 1534 1534 1534 1534 1534 1534 1535 1533
1466 1469 1473 1477 1481 1485 1488 1492 1496 1500 1504 1507 1510 1512 1514 1515 1516 1517 1519 1520 1522 1523 1524 1525 1526 1527 1527 1527 1528 1528 1529 1529 1529 1530 1530 1531 1531 1531 1531 1531 1531 1531 1531
1463 1466 1469 1473 1477 1481 1485 1488 1492 1496 1500 1503 1506 1508 1510 1512 1513 1514 1515 1517 1518 1520 1521 1522 1523 1523 1523 1524 1524 1525 1525 1526 1526 1527 1527 1527 1528 1528 1528 1528 1527 1527 1527
1462 1464 1467 1470 1474 1477 1481 1484 1488 1492 1496 1499 1502 1504 1506 1508 1510 1511 1512 1513 1515 1516 1517 1518 1519 1519 1520 1520 1520 1521 1522 1522 1523 1523 1524 1524 1524 1524 1525 1524 1524 1524 1524
1461 1463 1465 1468 1471 1474 1477 1481 1484 1488 1491 1495 1498 1500 1503 1505 1506 1507 1508 1509 1510 1512 1513 1514 1515 1515 1516 1516 1517 1518 1518 1518 1519 1519 1520 1520 1520 1521 1521 1521 1521 1521 1521
1461 1462 1464 1466 1469 1472 1475 1478 1481 1485 1488 1491 1494 1496 1499 1501 1503 1504 1505 1505 1506 1507 1508 1509 1510 1511 1512 1512 1513 1513 1514 1514 1515 1515 1516 1516 1516 1517 1517 1517 1517 1517 1517
1461 1462 1464 1466 1468 1471 1474 1477 1479 1483 1485 1487 1490 1492 1495 1497 1499 1500 1501 1501 1502 1503 1504 1504 1505 1507 1508 1508 1509 1509 1509 1510 1510 1511 1512 1512 1513 1513 1513 1513 1513 1514 1513
1461 1462 1464 1466 1468 1469 1472 1474 1477 1479 1482 1485 1486 1489 1491 1493 1494 1496 1497 1497 1498 1499 1499 1500 1501 1502 1503 1504 1504 1505 1505 1505 1506 1506 1506 1507 1508 1509 1509 1509 1509 1510 1510
1462 1462 1464 1465 1467 1468 1470 1473 1475 1477 1480 1482 1483 1486 1487 1488 1490 1492 1492 1492 1493 1494 1494 1495 1496 1496 1497 1498 1498 1499 1500 1500 1500 1501 1501 1502 1503 1503 1504 1504 1505 1505 1506
1461 1462 1463 1464 1466 1466 1468 1470 1473 1475 1477 1478 1479 1482 1484 1485 1486 1487 1487 1487 1488 1489 1488 1489 1490 1491 1491 1492 1493 1494 1494 1494 1495 1495 1496 1497 1497 1498 1498 1499 1500 1501 1501
1460 1461 1462 1462 1464 1465 1466 1468 1471 1472 1473 1474 1477 1479 1479 1480 1482 1482 1483 1483 1483 1484 1484 1485 1486 1486 1486 1487 1488 1489 1489 1489 1489 1490 1490 1491 1492 1493 1493 1494 1494 1495 1496
1459 1460 1461 1461 1463 1463 1465 1466 1468 1469 1470 1472 1473 1475 1475 1477 1477 1478 1478 1479 1479 1479 1480 1480 1481 1481 1481 1482 1483 1484 1484 1483 1484 1484 1485 1485 1486 1487 1488 1489 1490 1490 1491
1458 1459 1460 1461 1462 1463 1463 1464 1465 1466 1467 1469 1470 1471 1472 1473 1473 1473 1474 1474 1474 1474 1475 1476 1475 1475 1476 1477 1478 1478 1479 1479 1478 1478 1479 1480 1481 1482 1483 1484 1485 1486 1487
1456 1457 1458 1459 1460 1461 1461 1462 1463 1464 1465 1466 1467 1468 1468 1469 1470 1470 1470 1470 1470 1470 1469 1469 1469 1470 1471 1471 1472 1473 1473 1474 1473 1473 1473 1474 1475 1476 1478 1479 1480 1482 1483
1455 1455 1456 1457 1458 1459 1460 1460 1461 1462 1462 1463 1464 1465 1465 1465 1466 1465 1465 1465 1465 1465 1465 1465 1465 1465 1465 1465 1466 1466 1467 1468 1468 1467 1468 1469 1469 1470 1472 1474 1475 1477 1478
1453 1453 1454 1455 1456 1456 1458 1459 1459 1459 1460 1460 1460 1461 1461 1461 1462 1462 1462 1462 1461 1461 1460 1460 1460 1460 1460 1460 1460 1461 1461 1462 1463 1463 1463 1464 1465 1466 1467 1469 1470 1472 1473
1451 1451 1452 1452 1453 1454 1456 1457 1457 1456 1456 1457 1457 1457 1457 1457 1457 1457 1457 1457 1457 1458 1457 1456 1456 1455 1455 1455 1456 1456 1456 1457 1457 1458 1458 1459 1460 1461 1462 1464 1465 1467 1469
1449 1449 1449 1450 1451 1452 1452 1453 1453 1453 1452 1452 1452 1453 1452 1452 1452 1452 1451 1451 1452 1452 1452 1451 1451 1450 1451 1451 1451 1451 1451 1452 1452 1453 1453 1454 1454 1455 1456 1458 1460 1462 1463